Regional Weather Roundup
Issued by NWS

Home | Current Version | Previous Version | Text Only | Print | Product List | Glossary Off
Versions: 1 2 3 4 5 6 7 8 9 10 11 12 13 14 15 16 17 18 19 20 21 22 23 24 25 26 27 28 29 30 31 32 33 34 35 36 37 38 39 40 41 42 43 44 45 46 47 48 49 50

916
ASUS43 KMKX 260411
RWRWI

WISCONSIN REGIONAL WEATHER ROUNDUP
NATIONAL WEATHER SERVICE MILWAUKEE/SULLIVAN WI
1100 PM CDT TUE JUL 25 2017

NOTE: "FAIR" INDICATES FEW OR NO CLOUDS BELOW 12,000 FEET WITH NO
SIGNIFICANT WEATHER AND/OR OBSTRUCTIONS TO VISIBILITY.

WIZ001-002-006>008-014>016-023>028-260500-
NORTHWEST WISCONSIN

CITY           SKY/WX    TMP DP  RH WIND       PRES   REMARKS
SUPERIOR ARPT  NOT AVBL
ASHLAND        CLOUDY    72  65  78 SW5       29.94S
HAYWARD        CLOUDY    71  66  84 CALM      29.96S
SIREN          CLOUDY    71  68  90 S3        29.96R
CUMBERLAND     CLOUDY    68  64  88 E5        29.98R
RICE LAKE      CLOUDY    71  66  84 E5        29.98R
CHETEK         CLOUDY    71  67  89 SE5       29.97R
LADYSMITH      CLOUDY    72  65  80 SE7       30.01S
EAU CLAIRE     CLOUDY    73  66  78 S5        29.96S
MENOMONIE      CLOUDY    71  69  91 E6        29.96S
NEW RICHMOND   CLOUDY    76  69  79 SW9G16    29.97R
OSCEOLA        CLOUDY    76  71  85 CALM      29.98R
$$

WIZ003>005-009-010-017-018-260500-
NORTH CENTRAL WISCONSIN

CITY           SKY/WX    TMP DP  RH WIND       PRES   REMARKS
MANITOWISH WTR CLOUDY    68  65  93 S10       30.02R
ARBOR VITAE    CLOUDY    71  65  82 S12G17    30.02S
WOODRUFF       CLOUDY    71  65  82 S12G17    30.02S
RHINELANDER    CLOUDY    69  63  81 S8        30.04F
EAGLE RIVER    CLOUDY    67  59  76 S5        30.03F
LAND O LAKES   CLOUDY    68  60  76 S6        30.03F
PHILLIPS       CLOUDY    69  65  89 S9        30.01S
TOMAHAWK         N/A     66  62  87 CALM      30.04S
MEDFORD        MOCLDY    68  64  86 S9G17     30.02F
MERRILL        NOT AVBL
$$

WIZ029-030-035-036-043>047-260500-
CENTRAL WISCONSIN

CITY           SKY/WX    TMP DP  RH WIND       PRES   REMARKS
WAUSAU         CLOUDY    70  63  78 S12       30.02F
MOSINEE        CLOUDY    68  63  83 S9        30.05F
MARSHFIELD     CLOUDY    68  63  84 S7        30.02F
STEVENS POINT  CLOUDY    68  63  85 S7        30.05F
WAUPACA        CLOUDY    70  63  78 SE6       30.07S
WAUTOMA        CLOUDY    67  63  87 CALM      30.08S
WISC RAPIDS    MOCLDY    71  64  78 S6        30.05F
CAMP DOUGLAS   MOCLDY    68  66  94 S6        30.03F
$$

WIZ011>013-019>022-031-037>040-048>050-260500-
NORTHEAST WISCONSIN

CITY           SKY/WX    TMP DP  RH WIND       PRES   REMARKS
ANTIGO         CLOUDY    64  64  99 S8        30.06F
SHAWANO        CLOUDY    68  64  85 CALM      30.06F
OCONTO         MOCLDY    67  62  84 S8        30.05F
STURGEON BAY     N/A     65  61  87 S12       30.06F
GREEN BAY      MOCLDY    68  62  81 S12       30.07F
MANITOWOC      CLOUDY    69  61  75 S9        30.12R
APPLETON       MOCLDY    70  57  64 S10       30.08S
CLINTONVILLE   CLOUDY   N/A N/A N/A S7        30.07S
OSHKOSH        PTCLDY    68  62  81 SE5       30.08S
$$

WIZ032>034-041-042-053>061-260500-
SOUTHWEST WISCONSIN

CITY           SKY/WX    TMP DP  RH WIND       PRES   REMARKS
LA CROSSE      CLOUDY    78  69  73 S16       29.97F HX  80
SPARTA         CLOUDY    70  66  87 S6        30.02F
VIROQUA        CLOUDY    71  69  94 S9        30.05S
BOSCOBEL       MOCLDY    73  67  81 SW3       30.05F
PRAIRIE DU CHI CLOUDY    73  66  78 E6        30.04S
PLATTEVILLE    MOCLDY    69  69  99 S7        30.08F
$$

WIZ056-057-062-063-064-067-068-260500-
SOUTH CENTRAL WISCONSIN

CITY           SKY/WX    TMP DP  RH WIND       PRES   REMARKS
REEDSBURG      CLOUDY    70  67  90 S7        30.04F
BARABOO/DELLS  CLOUDY    69  63  80 S10G17    30.04F
LONE ROCK      CLOUDY    71  67  87 CALM      30.06F
MINERAL POINT  CLOUDY    70  68  94 S9        30.08F
MADISON        CLOUDY    71  61  70 S15       30.08F
MIDDLETON      CLOUDY    72  62  71 S9        30.08F
WATERTOWN      CLOUDY    66  64  93 SE5       30.09F
MONROE         CLOUDY    68  61  77 S10       30.10F
JANESVILLE     PTCLDY    70  61  73 S7        30.10F
$$

WIZ051-052-058>065-066-070>072-260500-
SOUTHEAST WISCONSIN

CITY           SKY/WX    TMP DP  RH WIND       PRES   REMARKS
MILWAUKEE      MOCLDY    71  60  68 S7        30.12S
WAUKESHA       CLEAR     66  55  68 S6        30.13S
MILWAUKEE/TIMM MOCLDY    68  54  60 S8        30.12R
RACINE         CLOUDY    71  64  78 S10       30.13F
KENOSHA        CLOUDY    69  62  78 S8        30.12F
FOND DU LAC    CLEAR     69  60  73 S9        30.08F
SHEBOYGAN      CLOUDY    68  62  81 S5        30.11F
WEST BEND      PTCLDY    66  57  72 S3        30.11F
JUNEAU         PTCLDY    67  62  83 S7        30.10S
$$

LSZ147-162-260500-
LAKE SUPERIOR

STATION/POSITION TIME  TEMP    WIND        PRES    WAVE
                       AIR SEA DIR/SP/G            HT/PER
                 (UTC) (F)     (DEG/KT/KT) (MB)    (FT/S)
W MID LAKE BUOY  0350   59 52  220/  6/  8 1012.7F   1/ 3
DEVILS ISLAND    0400   66     220/  5/  6 1012.7F
PORT WING        0240   64      20/  2/  3 1013.5S
SAXON HARBOR     0340   74     200/  8/ 14 1012.5F
$$

LMZ867-665-643>646-260500-
LAKE MICHIGAN

STATION/POSITION TIME  TEMP    WIND        PRES    WAVE
                       AIR SEA DIR/SP/G            HT/PER
                 (UTC) (F)     (DEG/KT/KT) (MB)    (FT/S)
CHAMBERS ISLAND  0340   69     150/  5/ 10 1016.9F
S GREEN BAY BUOY 0400   69 72  170/ 19/ 25 1017.1
N MID LAKE BUOY  0350   69 66  200/ 19/ 23 1019.5F   3/ 4
NORTHPORT PIER   0340   66     160/  6/ 12 1018.3F
KEWAUNEE LAKESHO 0348   68     190/  6/  9 1018.6F
SHEBOYGAN LAKESH 0400   69     170/ 14/ 16 1019.2F
PORT WASHINGTON  0340   71     190/  4/  8 1020.7R
ATWATER BUOY     0309   71 68  180/ 10/ 12 1019.6F
MILWAUKEE LAKESH 0350   72     190/ 10/ 11   N/A
S MID LAKE BUOY  0350   72 71  160/ 10/ 12 1020.6F   1
KENOSHA   LAKESH 0400   71     190/  8/ 13 1019.3
$$

TC  - TEMPERATURE IN CELSIUS
VSB - VISIBILITY IN STATUTE MILES
WCI - WIND CHILL INDEX
HX  - HEAT INDEX





USA.gov is the U.S. government's official web portal to all federal, state and local government web resources and services.